Overview Statistics Trail Chart Weather Telemetry Raw packets
 

This is the latest recevied weather packets stored in our database for station/object KH6DH-13. If no packets are shown the sender has not sent any weather packets the latest 10 day(s).

<< 51 52 53 54 55 56 57 >>
Time Temp. Humidity Pressure Rain* Wind** Luminosity Snow
1787885609 31.11° C - - 0 mm 1.34 m/s, 111° - -
1787885008 30.56° C - - 0 mm 0.45 m/s, 101° - -
1787884407 30.56° C - - 0 mm 1.79 m/s, 117° - -
1787883804 30.56° C - - 0 mm 2.24 m/s, 149° - -
1787883203 31.11° C - - 0 mm 0.89 m/s, 139° - -
1787882602 30.56° C - - 0 mm 1.79 m/s, 46° - -
1787882001 31.11° C - - 0 mm 0.45 m/s, 83° - -
1787881400 30.56° C - - 0 mm 1.79 m/s, 32° - -
1787880799 31.11° C - - 0 mm 2.24 m/s, 110° - -
1787880198 31.11° C - - 0 mm 2.68 m/s, 73° - -
1787879597 30.56° C - - 0 mm 1.34 m/s, 55° - -
1787878996 30.56° C - - 0 mm 2.68 m/s, 70° - -
1787878395 31.11° C - - 0 mm 2.68 m/s, 63° - -
1787877794 30.56° C - - 0 mm 2.24 m/s, 46° - -
1787877193 30.56° C - - 0 mm 1.79 m/s, 139° - -
1787876592 31.11° C - - 0 mm 1.34 m/s, 207° - -
1787875991 30.56° C - - 0 mm 1.34 m/s, 131° - -
1787875390 30.56° C - - 0 mm 2.68 m/s, 97° - -
1787874789 30.56° C - - 0 mm 1.79 m/s, 145° - -
1787874188 30.56° C - - 0 mm 1.34 m/s, 270° - -
1787873587 30.56° C - - 0 mm 1.79 m/s, 105° - -
1787872986 30.56° C - - 0 mm 2.68 m/s, 48° - -
1787872385 30.56° C - - 0 mm 1.79 m/s, 163° - -
1787871784 30.56° C - - 0 mm 2.24 m/s, 115° - -
1787871183 30.56° C - - 0 mm 1.34 m/s, 149° - -

* Rain latest hour (hover to see other rain measurements)
** Current wind speed in m/s (hover to see current wind gust speed)